Regional Weather Roundup
Issued by NWS Mobile, AL

Home | Current Version | Previous Version | Text Only | Print | Product List | Glossary On
Versions: 1 2 3 4 5 6 7 8 9 10 11 12 13 14 15 16 17 18 19 20 21 22 23 24 25 26 27 28 29 30 31 32 33 34 35 36 37 38 39 40 41 42 43 44 45 46 47 48 49 50
000
ASUS44 KMOB 211212
RWRMOB
REGIONAL WEATHER ROUNDUP
NATIONAL WEATHER SERVICE MOBILE AL
600 AM CST SAT JAN 21 2017

NOTE: "FAIR" INDICATES FEW OR NO CLOUDS BELOW 12,000 FEET WITH NO
      SIGNIFICANT WEATHER AND/OR OBSTRUCTIONS TO VISIBILITY.

  * THESE STATIONS ARE PART OF THE UNIVERSITY OF SOUTH ALABAMA
    MESONET AND ARE NOT UNDER NWS OR FAA QUALITY CONTROL.

ALZ061>064-211300-
COASTAL ALABAMA

CITY           SKY/WX    TMP DP  RH WIND       PRES   REMARKS
MOBILE REG APT CLOUDY    72  68  87 S16G28    29.73R
6HR MIN TEMP:  68; 6HR MAX TEMP:  72; 6HR PCP: TRACE;

BROOKLEY FIELD CLOUDY    71  70  96 S12       29.74R
6HR MIN TEMP:  69; 6HR MAX TEMP:  71; 6HR PCP: TRACE;

USA CAMPUS*      N/A     72  68  88 S7        29.73R
DOG RIVER*       N/A     72  70  94 S9        30.40


CITY           SKY/WX    TMP DP  RH WIND       PRES   REMARKS
GULF SHORES    CLOUDY    70  70 100 S13G18    29.74R

$$

ALZ051>060-211300-
INTERIOR SOUTHWEST AND SOUTH CENTRAL ALABAMA

CITY           SKY/WX    TMP DP  RH WIND       PRES   REMARKS
GREENVILLE     CLOUDY    68  66  93 S10       29.70F
6HR MIN TEMP:  66; 6HR MAX TEMP:  68; 6HR PCP:  0.25;

EVERGREEN      CLOUDY    70  67  90 S14G24    29.69F
6HR MIN TEMP:  66; 6HR MAX TEMP:  70; 6HR PCP:  0.06;

ATMORE*          N/A     70  70 100 S20       29.74R
ANDALUSIA/OPP  CLOUDY    72  68  87 S8        29.74R
6HR MIN TEMP:  69; 6HR MAX TEMP:  72; 6HR PCP:  0.02;

ANDALUSIA*       N/A     68  68 100 S10       29.75R
FLORALA APT    CLOUDY    70  67  90 S9        29.77S
6HR MIN TEMP:  67; 6HR MAX TEMP:  72; 6HR PCP:  0.03;

FLORALA*         N/A     70  68  94 SE3       30.40R

$$

FLZ001>006-211300-
WESTERN FLORIDA PANHANDLE

CITY           SKY/WX    TMP DP  RH WIND       PRES   REMARKS
PENSACOLA      CLOUDY    72  68  87 S15       29.75R
6HR MIN TEMP:  70; 6HR MAX TEMP:  73;

NAS PENSACOLA  CLOUDY    71  69  93 S12       29.74R
6HR MIN TEMP:  69; 6HR MAX TEMP:  71;

MILTON         LGT RAIN  71  69  93 S14       29.74R
6HR MIN TEMP:  67; 6HR MAX TEMP:  71; 6HR PCP:  0.03;

WHTNG S FIELD  CLOUDY    74  70  87 S14G21    29.75R
6HR MIN TEMP:  70; 6HR MAX TEMP:  74; 6HR PCP:  0.07;



CITY           SKY/WX    TMP DP  RH WIND       PRES   REMARKS
JAY*             N/A     70  66  88 S20       29.73S
DUKE FIELD     MOCLDY    71  69  92 S15G22    29.76R
CRESTVIEW      CLOUDY    71  68  90 S10G22    29.78R
6HR MIN TEMP:  67; 6HR MAX TEMP:  71; 6HR PCP:  0.08;

VALPARAISO     CLOUDY    71  69  93 S9G17     29.77R
6HR MIN TEMP:  70; 6HR MAX TEMP:  72;

DESTIN         CLOUDY    75  74  96 S9G22     29.77R
6HR MIN TEMP:  72; 6HR MAX TEMP:  75; 6HR PCP: TRACE;


$$

MSZ076-079-211300-
INTERIOR SOUTHEAST MISSISSIPPI

CITY           SKY/WX    TMP DP  RH WIND       PRES   REMARKS
LEAKESVILLE*   NOT AVBL
AGRICOLA*      NOT AVBL

$$

MARINE OBSERVATIONS

STATION/POSITION TIME  TEMP    WIND        PRES    WAVE
                       AIR SEA DIR/SP/G            HT/PER
                 (UTC) (F)     (DEG/KT/KT) (MB)    (FT/S)
PASCAGOULA       1148   69     190/ 11/ 15 1006.4R
PETIT BOIS ISLND 1148   68     200/ 14/ 17 1007.3R
GRAND BAY        1045   69     180/ 12     1006.0S
KATRINA CUT      1100          180/ 16     1005.4
CEDAR POINT      1130   69     190/ 16     1006.4R
E DAUPHIN ISLAND 1100   68     180/ 15/ 18 1005.7R
MIDDLE BAY LIGHT 1100   69     160/ 16     1006.4
USCG MOBILE BAY  1148   69 66  190/  8/ 17 1007.2R
STATE DOCKS      1142   69 62              1006.3R
MEAHER PARK      1130   70     170/ 18     1006.4R
WEEKS BAY        1045   71                   N/A
FORT MORGAN      1148   69     190/ 20/ 22   N/A
12 S ORANGE BCH  1050   71 67  170/ 19/ 23 1005.1F   4/ 6
PENSACOLA BAY    1142   69 67  200/  9/ 10 1007.2R
67 S FORT MORGAN 1130   73                 1007.8R

$$

SELECTED LOCATIONS ACROSS THE REGION

CITY           SKY/WX    TMP DP  RH WIND       PRES   REMARKS
NEW ORLEANS    CLOUDY    73  69  87 SW12      29.69R
GULFPORT       CLOUDY    69  69 100 S9        29.71R FOG
PASCAGOULA AP  CLOUDY    71  68  90 S12G20    29.73R
PASCAGOULA*    NOT AVBL
HATTIESBURG    TSTM      62  60  93 NW13      29.79R FOG
LAUREL         CLOUDY    59  55  88 NW7       29.79R THUNDER
MERIDIAN       TSTM      60  60 100 N17       29.70S
JACKSON        LGT RAIN  59  57  93 SE7       29.72F
MONTGOMERY     LGT RAIN  63  59  87 VRB5      29.72S
TROY           CLOUDY    67  67 100 S9        29.75R
ASHFORD*         N/A     68  68 100 S10       29.75R
DOTHAN         CLOUDY    67  67 100 S14       29.81R
PANAMA CITY    MOCLDY    72  69  90 SE12      29.78R

$$




USA.gov is the U.S. government's official web portal to all federal, state and local government web resources and services.